STARLINK-2467, 48126

Orbit data source: Space-Track

STARLINK-2467, 48126 is a payload satellite owned by SpaceX/Seattle (US) in LEO that was launched on Wed, 07 Apr 2021 UTC via an FALCON 9 launch vehicle from the Air Force Eastern Test Range (AFETR). Payload-class satellites include a variety of spacecraft equipped with specific instruments for various scientific and technological missions. These include communications satellites like Starlink; space stations such as the ISS; scientific satellites like the Hubble; Earth observation satellites from companies like Planet Labs, Umbra, and HawkEye 360; GPS; miniature CubeSats for education and research; and military/defense satellites.

Loading next visibility...
Identifier
48126, 2021-027AL
Orbit
LEO
Country
Flag of USUS
Related business
Manufacturer
SpaceX/Seattle
Mission
Operational Commercial Communications
Bus & Motor
STARLINK, Unknown motor
Mass
260 kg wet, ~248 kg dry
Launch date (UTC)
2021-04-07 (5 years ago)
Launch vehicle
FALCON 9
Launch site
Air Force Eastern Test Range (AFETR)
Object type
Payload
Rocket body
Debris
Shape & HBR
Box + 1 Pan, 10.1 m
Radar Cross Section
13.562 m², Large (>1 m²)

Expand to show TLE details & history
Last TLE update: 3 days ago

TLE from 3 days ago
0 STARLINK-2467
1 48126U 21027AL  26170.85245244  .00003193  00000-0  11462-3 0  9996
2 48126  53.1635  37.1899 0001473 113.5663 246.5493 15.31697282288345
Epoch: 2026-06-19T20:27Z
TLE epoch observation values (Epoch: 2026-06-19T20:27:31.890Z)
Latitude
-0.00006°
Longitude
-177.7685°
Altitude
472.05 km
Speed
7.631 km/s
True Right ascension
02h 28m 45s
True Declination
0° 00' 00"
Sunlit
Object was in daylight at epoch
Visualization orbit readout
Latitude
Unknown
Longitude
Unknown
Altitude
Unknown
Speed
Unknown
Apparent Right ascension
Unknown
Apparent Declination
Unknown
Sunlit
N/A
Visualization observer readout
Local Sidereal Time
21:30:51
Azimuth
Unknown
Elevation
Unknown
Doppler factor
Unknown
Orbital elements
Apogee altitude
472.013 km
Perigee altitude
469.995 km
Semi-major axis
6,849.141 km
Eccentricity
0.00015
Inclination
53.1635°
RAAN
37.1899°
Arg. of periapsis
113.5663°
True anomaly
246.53382°
Mean anomaly
246.5493°
Eccentric anomaly
246.54156°
Mean motion
3.82903 °/min
Orbital period
94.02 mins
BSTAR
0.00011462
Loading maneuver chart data...
Computing Atmospheric mass density...
Loading historical data...
Loading historical data...
Loading historical data...
Loading historical data...
Loading historical data...
Loading historical data...
Loading historical data...

Documentation

Showing up to 5 results
|